星链-31324 (STARLINK-31324 )

导读

STARLINK-31324是美国SpaceX星链互联网星座的一员,于2024年2月15日发射入轨,属于低轨通信卫星。星链星座通过大规模组网,为全球提供高速宽带互联网服务,尤其覆盖偏远地区。这颗卫星加入后,进一步扩充了星链规模,提升星座覆盖密度与服务容量,延续了SpaceX推进星链部署的节奏,也推动全球低轨卫星互联网发展。

基本信息
目录编号:
58976
目录名称:
STARLINK-31324
国际标识:
2024-031M
轨道中心:
EARTH
卫星名称:
星链-31324
卫星全名:
星链-31324 (STARLINK-31324 )
卫星状态:
在轨 (已飞行853 天)
发射日期:
2024-02-15 UTC
国别 :
美国 (US)
星等 :
--
轨道信息
数据来源 国际轨道数据 AOE轨道数据
星历时间 2026-06-16T17:20:47+0800
22小时前
查看轨道信息
2026-06-15T07:00:00+0800
2天前
查看轨道信息
半长轴 6853.353km 6853.319km
偏心率 0.0001225 0.0001165
轨道倾角 53.159° 53.158°
近地点辐角 82.970° 80.221°
升交点赤经 198.306° 204.952°
平近点角 277.144° 312.028°
近地点 474.376km 474.383km
远地点 476.056km 475.981km
周期 94.105分钟 94.105分钟
每日圈数 15.302 15.302112
详细信息
固有亮度:
5
最大亮度:
0.3
卫星平台:
Starlink v2.0 mini
覆盖范围:
全球
运营商:
太空探索技术公司
运营商所在国:
美国
制造商(研发单位):
太空探索技术公司
制造商所在国:
美国
使用方式:
暂无
卫星简介
星链(Starlink)计划是由太空探索技术公司(SpaceX)提出的一个巨型低轨卫星互联网星座项目,计划在2019年至2024年间在太空搭建由约1.2万颗卫星组成的“星链”网络,其中1584颗将部署在地球上空550千米处的近地轨道,并从2020年开始工作。该卫星仍在工作。
2D轨道图
3D轨道图
轨道高度分析图
轨道倾角分析图
轨道综合分析图
查看轨道综合分析图